Time,TemperatureF,DewpointF,PressureIn,WindDirection,WindDirectionDegrees,WindSpeedMPH,WindSpeedGustMPH,Humidity,HourlyPrecipIn,Conditions,Clouds,dailyrainin,SoftwareType,DateUTC
2013-08-22 00:13:00,64.8,52.0,29.81,NE,45,0.0,3.0,64,0.00,,,0.00,weatherlink.com 1.10,2013-08-22 06:13:00,
2013-08-22 00:28:00,65.9,52.0,29.82,NNE,22,0.0,3.0,62,0.00,,,0.00,weatherlink.com 1.10,2013-08-22 06:28:00,
2013-08-22 00:43:00,67.1,53.0,29.82,NW,304,0.0,3.0,61,0.00,,,0.00,weatherlink.com 1.10,2013-08-22 06:43:00,
2013-08-22 00:58:00,68.0,53.0,29.82,NW,317,0.0,3.0,59,0.00,,,0.00,weatherlink.com 1.10,2013-08-22 06:58:00,
2013-08-22 01:13:00,68.4,53.0,29.82,WNW,302,0.0,3.0,59,0.00,,,0.00,weatherlink.com 1.10,2013-08-22 07:13:00,
2013-08-22 01:28:00,68.1,53.0,29.82,NW,317,0.0,3.0,59,0.00,,,0.00,weatherlink.com 1.10,2013-08-22 07:28:00,
2013-08-22 01:43:00,67.8,53.0,29.84,NE,35,1.0,3.0,60,0.00,,,0.00,weatherlink.com 1.10,2013-08-22 07:43:00,
2013-08-22 01:58:00,67.6,53.0,29.84,NE,47,1.0,5.0,60,0.00,,,0.00,weatherlink.com 1.10,2013-08-22 07:58:00,
2013-08-22 02:13:00,67.2,53.0,29.85,NE,39,0.0,3.0,61,0.00,,,0.00,weatherlink.com 1.10,2013-08-22 08:13:00,
2013-08-22 02:28:00,66.7,53.0,29.85,NE,41,1.0,4.0,62,0.00,,,0.00,weatherlink.com 1.10,2013-08-22 08:28:00,
2013-08-22 02:43:00,66.2,53.0,29.86,NE,41,0.0,0.0,63,0.00,,,0.00,weatherlink.com 1.10,2013-08-22 08:43:00,
2013-08-22 02:58:00,65.6,53.0,29.86,NE,41,0.0,1.0,65,0.00,,,0.00,weatherlink.com 1.10,2013-08-22 08:58:00,
2013-08-22 03:13:00,65.0,53.0,29.86,NE,41,0.0,0.0,66,0.00,,,0.00,weatherlink.com 1.10,2013-08-22 09:13:00,
2013-08-22 03:28:00,64.5,54.0,29.86,NE,41,0.0,1.0,69,0.00,,,0.00,weatherlink.com 1.10,2013-08-22 09:28:00,
2013-08-22 03:43:00,64.1,54.0,29.87,NE,41,0.0,1.0,70,0.00,,,0.00,weatherlink.com 1.10,2013-08-22 09:43:00,
2013-08-22 03:58:00,63.8,54.0,29.86,NE,41,0.0,0.0,71,0.00,,,0.00,weatherlink.com 1.10,2013-08-22 09:58:00,
2013-08-22 04:13:00,63.2,54.0,29.86,NE,41,0.0,0.0,72,0.00,,,0.00,weatherlink.com 1.10,2013-08-22 10:13:00,
2013-08-22 04:28:00,62.6,54.0,29.85,NE,41,0.0,0.0,74,0.00,,,0.00,weatherlink.com 1.10,2013-08-22 10:28:00,
2013-08-22 04:43:00,62.2,55.0,29.85,NE,41,0.0,0.0,76,0.00,,,0.00,weatherlink.com 1.10,2013-08-22 10:43:00,
2013-08-22 06:28:00,61.2,55.0,29.87,NE,41,0.0,0.0,80,0.00,,,0.00,weatherlink.com 1.10,2013-08-22 12:28:00,
2013-08-22 06:44:00,61.3,55.0,29.87,NE,41,0.0,0.0,80,0.00,,,0.00,weatherlink.com 1.10,2013-08-22 12:44:00,
2013-08-22 06:59:00,62.0,55.0,29.88,NE,41,0.0,1.0,79,0.00,,,0.00,weatherlink.com 1.10,2013-08-22 12:59:00,
2013-08-22 07:14:00,62.6,56.0,29.89,NE,41,0.0,0.0,79,0.00,,,0.00,weatherlink.com 1.10,2013-08-22 13:14:00,
2013-08-22 07:29:00,63.1,56.0,29.89,NE,41,0.0,0.0,78,0.00,,,0.00,weatherlink.com 1.10,2013-08-22 13:29:00,
2013-08-22 07:44:00,63.5,57.0,29.89,NE,41,0.0,0.0,80,0.00,,,0.00,weatherlink.com 1.10,2013-08-22 13:44:00,
2013-08-22 07:59:00,63.9,57.0,29.90,NE,41,0.0,1.0,77,0.00,,,0.00,weatherlink.com 1.10,2013-08-22 13:59:00,
2013-08-22 08:14:00,64.4,57.0,29.90,NE,41,0.0,0.0,77,0.00,,,0.00,weatherlink.com 1.10,2013-08-22 14:14:00,
2013-08-22 08:29:00,64.5,58.0,29.90,NE,41,0.0,0.0,78,0.00,,,0.00,weatherlink.com 1.10,2013-08-22 14:29:00,
2013-08-22 08:44:00,64.7,56.0,29.90,NE,41,0.0,0.0,73,0.00,,,0.00,weatherlink.com 1.10,2013-08-22 14:44:00,
2013-08-22 08:59:00,65.3,55.0,29.90,NE,41,1.0,2.0,70,0.00,,,0.00,weatherlink.com 1.10,2013-08-22 14:59:00,
2013-08-22 09:14:00,65.9,57.0,29.91,NE,41,0.0,0.0,72,0.00,,,0.00,weatherlink.com 1.10,2013-08-22 15:14:00,
2013-08-22 09:29:00,67.0,56.0,29.91,NE,41,0.0,1.0,68,0.00,,,0.00,weatherlink.com 1.10,2013-08-22 15:29:00,
2013-08-22 09:44:00,69.4,56.0,29.91,NE,41,0.0,1.0,63,0.00,,,0.00,weatherlink.com 1.10,2013-08-22 15:44:00,
2013-08-22 09:59:00,70.7,56.0,29.91,NE,40,1.0,3.0,59,0.00,,,0.00,weatherlink.com 1.10,2013-08-22 15:59:00,
2013-08-22 10:14:00,70.5,56.0,29.91,NE,40,1.0,1.0,60,0.00,,,0.00,weatherlink.com 1.10,2013-08-22 16:14:00,
2013-08-22 10:29:00,70.4,56.0,29.91,NE,40,0.0,2.0,60,0.00,,,0.00,weatherlink.com 1.10,2013-08-22 16:29:00,
2013-08-22 10:44:00,70.4,56.0,29.91,NE,40,0.0,2.0,61,0.00,,,0.00,weatherlink.com 1.10,2013-08-22 16:44:00,
2013-08-22 10:59:00,71.9,56.0,29.90,NE,40,0.0,1.0,58,0.00,,,0.00,weatherlink.com 1.10,2013-08-22 16:59:00,
2013-08-22 11:14:00,73.0,56.0,29.90,NE,38,0.0,3.0,56,0.00,,,0.00,weatherlink.com 1.10,2013-08-22 17:14:00,
2013-08-22 11:29:00,74.8,56.0,29.89,NE,44,0.0,2.0,52,0.00,,,0.00,weatherlink.com 1.10,2013-08-22 17:29:00,
2013-08-22 11:44:00,75.0,57.0,29.89,NE,44,0.0,2.0,54,0.00,,,0.00,weatherlink.com 1.10,2013-08-22 17:44:00,
2013-08-22 11:59:00,76.8,58.0,29.88,NE,47,1.0,3.0,53,0.00,,,0.00,weatherlink.com 1.10,2013-08-22 17:59:00,
2013-08-22 12:14:00,78.1,57.0,29.87,East,99,0.0,4.0,49,0.00,,,0.00,weatherlink.com 1.10,2013-08-22 18:14:00,
2013-08-22 12:29:00,78.5,58.0,29.86,ESE,123,0.0,3.0,49,0.00,,,0.00,weatherlink.com 1.10,2013-08-22 18:29:00,
2013-08-22 12:44:00,78.5,57.0,29.85,ENE,78,0.0,3.0,48,0.00,,,0.00,weatherlink.com 1.10,2013-08-22 18:44:00,
2013-08-22 12:59:00,78.4,58.0,29.85,ENE,77,0.0,2.0,49,0.00,,,0.00,weatherlink.com 1.10,2013-08-22 18:59:00,
2013-08-22 13:14:00,78.5,57.0,29.85,ENE,77,0.0,2.0,48,0.00,,,0.00,weatherlink.com 1.10,2013-08-22 19:14:00,
2013-08-22 13:29:00,79.6,58.0,29.84,ENE,68,0.0,4.0,47,0.00,,,0.00,weatherlink.com 1.10,2013-08-22 19:29:00,
2013-08-22 13:44:00,82.2,57.0,29.84,East,90,0.0,1.0,43,0.00,,,0.00,weatherlink.com 1.10,2013-08-22 19:44:00,
2013-08-22 13:59:00,80.8,57.0,29.84,East,90,0.0,3.0,44,0.00,,,0.00,weatherlink.com 1.10,2013-08-22 19:59:00,
2013-08-22 14:14:00,79.7,57.0,29.84,East,90,0.0,2.0,46,0.00,,,0.00,weatherlink.com 1.10,2013-08-22 20:14:00,
2013-08-22 14:29:00,79.2,57.0,29.84,East,90,0.0,1.0,47,0.00,,,0.00,weatherlink.com 1.10,2013-08-22 20:29:00,
2013-08-22 14:44:00,79.4,61.0,29.82,NE,44,3.0,7.0,53,0.00,,,0.00,weatherlink.com 1.10,2013-08-22 20:44:00,
2013-08-22 14:59:00,79.9,61.0,29.82,NE,34,3.0,7.0,53,0.00,,,0.00,weatherlink.com 1.10,2013-08-22 20:59:00,
2013-08-22 15:14:00,79.6,61.0,29.82,North,9,1.0,6.0,53,0.00,,,0.00,weatherlink.com 1.10,2013-08-22 21:14:00,
2013-08-22 15:29:00,80.2,61.0,29.81,NE,50,2.0,6.0,52,0.00,,,0.00,weatherlink.com 1.10,2013-08-22 21:29:00,
2013-08-22 15:44:00,79.7,62.0,29.80,NE,34,2.0,6.0,54,0.00,,,0.00,weatherlink.com 1.10,2013-08-22 21:44:00,
2013-08-22 16:00:00,80.1,60.0,29.79,NNE,13,5.0,6.0,51,0.00,,,0.00,weatherlink.com 1.10,2013-08-22 22:00:00,
2013-08-22 16:15:00,80.0,60.0,29.80,NNE,18,0.0,7.0,50,0.00,,,0.00,weatherlink.com 1.10,2013-08-22 22:15:00,
2013-08-22 16:30:00,80.1,60.0,29.79,East,92,2.0,4.0,50,0.00,,,0.00,weatherlink.com 1.10,2013-08-22 22:30:00,
2013-08-22 16:45:00,80.3,59.0,29.80,NE,36,1.0,3.0,49,0.00,,,0.00,weatherlink.com 1.10,2013-08-22 22:45:00,
2013-08-22 17:00:00,79.0,59.0,29.80,NE,42,1.0,6.0,50,0.00,,,0.00,weatherlink.com 1.10,2013-08-22 23:00:00,
2013-08-22 17:15:00,78.3,59.0,29.83,NW,325,2.0,4.0,51,0.00,,,0.00,weatherlink.com 1.10,2013-08-22 23:15:00,
2013-08-22 17:30:00,76.9,58.0,29.82,NNW,342,4.0,6.0,53,0.00,,,0.00,weatherlink.com 1.10,2013-08-22 23:30:00,
2013-08-22 17:45:00,70.9,52.0,29.86,WNW,293,15.0,25.0,52,0.00,,,0.00,weatherlink.com 1.10,2013-08-22 23:45:00,
2013-08-22 18:00:00,62.2,56.0,29.86,NNW,331,3.0,15.0,80,0.00,,,0.00,weatherlink.com 1.10,2013-08-23 00:00:00,
2013-08-22 18:15:00,60.1,55.0,29.83,West,267,0.0,10.0,83,0.00,,,0.00,weatherlink.com 1.10,2013-08-23 00:15:00,
2013-08-22 18:30:00,59.1,55.0,29.83,West,277,2.0,7.0,85,0.00,,,0.00,weatherlink.com 1.10,2013-08-23 00:30:00,
2013-08-22 18:45:00,59.4,56.0,29.83,West,268,0.0,6.0,88,0.00,,,0.00,weatherlink.com 1.10,2013-08-23 00:45:00,
2013-08-22 19:00:00,60.0,57.0,29.83,West,268,0.0,1.0,88,0.00,,,0.00,weatherlink.com 1.10,2013-08-23 01:00:00,
2013-08-22 19:15:00,60.3,57.0,29.84,West,268,0.0,1.0,88,0.00,,,0.00,weatherlink.com 1.10,2013-08-23 01:15:00,
2013-08-22 19:30:00,60.4,56.0,29.85,West,267,0.0,1.0,86,0.00,,,0.00,weatherlink.com 1.10,2013-08-23 01:30:00,
2013-08-22 19:45:00,60.7,56.0,29.86,SSW,211,0.0,2.0,84,0.00,,,0.00,weatherlink.com 1.10,2013-08-23 01:45:00,
2013-08-22 20:00:00,61.1,55.0,29.87,WSW,256,0.0,2.0,81,0.00,,,0.00,weatherlink.com 1.10,2013-08-23 02:00:00,
2013-08-22 20:15:00,61.8,56.0,29.87,WSW,256,0.0,0.0,80,0.00,,,0.00,weatherlink.com 1.10,2013-08-23 02:15:00,
2013-08-22 20:30:00,62.2,56.0,29.85,NNE,32,1.0,2.0,81,0.00,,,0.00,weatherlink.com 1.10,2013-08-23 02:30:00,
2013-08-22 20:45:00,62.4,57.0,29.88,West,269,0.0,5.0,83,0.00,,,0.00,weatherlink.com 1.10,2013-08-23 02:45:00,
2013-08-22 21:00:00,61.8,57.0,29.88,West,269,0.0,0.0,85,0.00,,,0.00,weatherlink.com 1.10,2013-08-23 03:00:00,
2013-08-22 21:15:00,62.0,58.0,29.87,West,273,0.0,3.0,85,0.00,,,0.00,weatherlink.com 1.10,2013-08-23 03:15:00,
2013-08-22 21:30:00,61.8,58.0,29.87,West,273,0.0,0.0,86,0.00,,,0.00,weatherlink.com 1.10,2013-08-23 03:30:00,
2013-08-22 21:45:00,62.1,57.0,29.90,SSW,200,0.0,2.0,84,0.00,,,0.00,weatherlink.com 1.10,2013-08-23 03:45:00,
2013-08-22 22:00:00,62.5,57.0,29.91,SSW,200,0.0,0.0,83,0.00,,,0.00,weatherlink.com 1.10,2013-08-23 04:00:00,
2013-08-22 22:15:00,63.0,57.0,29.91,SSW,199,0.0,1.0,82,0.00,,,0.00,weatherlink.com 1.10,2013-08-23 04:15:00,
2013-08-22 22:30:00,63.3,57.0,29.92,SSW,199,1.0,2.0,81,0.00,,,0.00,weatherlink.com 1.10,2013-08-23 04:30:00,
2013-08-22 22:45:00,63.5,57.0,29.91,SSW,198,1.0,2.0,79,0.00,,,0.00,weatherlink.com 1.10,2013-08-23 04:45:00,
2013-08-22 23:00:00,63.9,57.0,29.93,West,263,1.0,2.0,78,0.00,,,0.00,weatherlink.com 1.10,2013-08-23 05:00:00,
2013-08-22 23:15:00,64.4,57.0,29.93,SSW,199,0.0,3.0,76,0.00,,,0.00,weatherlink.com 1.10,2013-08-23 05:15:00,
2013-08-22 23:30:00,64.2,57.0,29.93,SSW,199,0.0,1.0,78,0.00,,,0.00,weatherlink.com 1.10,2013-08-23 05:30:00,
2013-08-22 23:45:00,63.2,57.0,29.93,SSW,192,0.0,3.0,80,0.00,,,0.00,weatherlink.com 1.10,2013-08-23 05:45:00,